[[{"header":{"parameterUnit":"m.s-1","parameterCategory":1,"la1":30.2991,"la2":30.254,"lo1":-89.0895,"lo2":-89.0444,"dy":0.0017,"dx":0.0017,"nx":28,"ny":28,"refTime":"2025-06-21T21:00:00:Z","depth":0,"parameterNumber":2,"parameterNumberName":"U-component_of_WINDS"},"data":[0,0,0,0,0,0,0,0,0,0,0,0,0,0,0,0,0,0,0,0,0,0,0,0,0,0,0,0,0,0,0,0,0,0,0,0,0,0,0,0,0,0,0,0,0,0,0,0,0,0,0,0,0,0,0,0,0,0,-0.8873,-0.8873,0,-0.8837,-0.8837,-0.8836,-0.8783,-0.8782,-0.8781,-0.878,-0.8744,-0.8744,-0.8744,0,0,0,0,0,0,0,0,0,0,0,0,0,-0.8896,-0.8896,-0.8873,-0.8872,-0.8872,-0.8837,-0.8837,-0.8836,-0.8783,-0.8782,-0.8781,-0.878,-0.8744,-0.8744,-0.8744,0,0,0,0,0,0,0,0,0,0,0,0,0,-0.8876,-0.8896,-0.8873,-0.8841,-0.8838,-0.8837,-0.8837,-0.8836,-0.8783,-0.8782,-0.878,-0.8779,-0.8744,-0.8744,-0.8744,-0.8771,0,0,-0.8743,-0.8743,0,0,0,0,0,0,0,0,-0.8877,-0.8875,-0.8846,-0.8844,-0.884,-0.8813,-0.8831,-0.8814,-0.8784,-0.8804,-0.878,-0.8778,-0.8768,-0.8766,-0.8762,-0.8769,-0.8768,-0.8743,-0.8743,-0.8743,-0.8743,0,0,0,0,0,0,0,-0.8879,-0.8876,-0.8859,-0.8846,-0.8842,-0.8829,-0.8825,-0.8828,-0.8794,-0.8802,-0.8798,-0.8795,-0.8766,-0.8762,-0.8761,-0.8767,-0.8743,-0.8743,-0.8743,-0.8743,-0.8795,-0.8796,0,0,0,0,0,0,-0.8885,-0.8878,-0.886,-0.8858,-0.8855,-0.883,-0.8825,-0.8823,-0.8794,-0.8788,-0.8796,-0.8792,-0.8763,-0.8761,-0.8759,-0.879,-0.8743,-0.8743,-0.8743,-0.8794,-0.8795,-0.8797,0,0,0,0,0,0,-0.8885,-0.8884,-0.8861,-0.8867,-0.8863,-0.8831,-0.8829,-0.8823,-0.8819,-0.8789,-0.8783,-0.8798,-0.8762,-0.876,-0.8768,-0.8788,-0.8743,-0.8743,-0.8792,-0.8794,-0.8796,-0.885,0,0,0,0,0,0,-0.8886,-0.8884,-0.8894,-0.8867,-0.8863,-0.8871,-0.883,-0.8823,-0.8819,-0.8814,-0.879,-0.8785,-0.8761,-0.8769,-0.8768,-0.8787,-0.8743,-0.879,-0.8793,-0.8795,-0.8847,-0.8854,-0.8861,0,0,0,0,0,-0.8887,-0.8911,-0.8895,-0.8893,-0.8874,-0.8872,-0.887,-0.8841,-0.8821,-0.8831,-0.8812,-0.8786,-0.8786,-0.877,-0.8769,-0.8788,-0.8789,-0.8792,-0.8795,-0.8844,-0.8853,-0.886,0,0,0,0,0,0,-0.8941,-0.8907,-0.8889,-0.8904,-0.8891,-0.8863,-0.8875,-0.8852,-0.8845,-0.884,-0.8806,-0.8801,-0.8814,-0.8802,-0.8785,-0.8813,-0.8783,-0.8786,-0.882,-0.8829,-0.8836,-0.8838,-0.8743,0,0,0,0,0,-0.8955,-0.8955,-0.8925,-0.8942,-0.8937,-0.8907,-0.8905,-0.8884,-0.887,-0.8864,-0.8845,-0.8833,-0.883,-0.8828,-0.8824,-0.8845,-0.8839,-0.8857,-0.8864,-0.8869,-0.8873,-0.8883,-0.8891,-0.8808,-0.8808,-0.8808,0,0,-0.8983,-0.8964,-0.8967,-0.8952,-0.894,-0.8942,-0.8903,-0.8906,-0.8907,-0.8865,-0.8872,-0.8858,-0.8841,-0.8856,-0.8862,-0.8846,-0.8894,-0.8874,-0.8879,-0.8879,-0.8887,-0.8895,-0.8902,-0.881,-0.881,-0.8809,0,0,-0.9035,-0.9021,-0.9033,-0.9022,-0.9004,-0.8984,-0.8987,-0.8962,-0.8951,-0.8958,-0.8926,-0.8926,-0.8922,-0.8912,-0.8906,-0.8954,-0.893,-0.8954,-0.899,-0.9,-0.9007,-0.9012,-0.903,-0.9037,-0.8957,-0.8957,-0.8957,0,-0.9073,-0.9074,-0.9043,-0.9048,-0.9043,-0.9004,-0.9017,-0.9007,-0.8989,-0.8986,-0.8969,-0.8962,-0.8948,-0.8961,-0.8972,-0.8969,-0.8972,-0.8957,-0.9008,-0.9014,-0.9018,-0.9035,-0.9042,-0.896,-0.896,-0.896,-0.8959,0,-0.9121,-0.9122,-0.9134,-0.9117,-0.9113,-0.9123,-0.9093,-0.9093,-0.9073,-0.9055,-0.9062,-0.9044,-0.9035,-0.9037,-0.9017,-0.9046,-0.9037,-0.9015,-0.8984,-0.903,-0.9045,-0.9051,-0.8965,-0.8963,-0.8963,-0.8962,0,0,-0.9206,-0.9172,-0.9177,-0.9169,-0.9146,-0.9146,-0.9154,-0.9145,-0.9146,-0.9134,-0.914,-0.9137,-0.9116,-0.911,-0.9088,-0.9097,-0.9138,-0.9074,-0.9073,-0.9087,-0.9169,-0.9186,-0.9194,-0.9121,-0.9122,-0.9123,-0.917,0,-0.9255,-0.9265,-0.9237,-0.9255,-0.9256,-0.9219,-0.9225,-0.9212,-0.9196,-0.9194,-0.9176,-0.9175,-0.9147,-0.9143,-0.915,-0.9131,-0.9154,-0.9127,-0.9126,-0.9127,-0.9132,-0.9202,-0.922,-0.9265,-0.9176,-0.9177,-0.9178,0,-0.9312,-0.9303,-0.9321,-0.9297,-0.9297,-0.9303,-0.9293,-0.9292,-0.9276,-0.9263,-0.9256,-0.9231,-0.9237,-0.9208,-0.9216,-0.9198,-0.9196,-0.9187,-0.9188,-0.9187,-0.9155,-0.9203,-0.9279,-0.9286,-0.9186,-0.9186,-0.9185,0,-0.9373,-0.9366,-0.9376,-0.937,-0.9342,-0.9347,-0.9336,-0.9319,-0.9316,-0.9307,-0.9304,-0.9297,-0.9292,-0.9287,-0.9261,-0.9242,-0.9272,-0.924,-0.9262,-0.9263,-0.927,-0.927,-0.9348,-0.9268,-0.9268,-0.9268,-0.9268,0,-0.943,-0.9443,-0.9403,-0.9409,-0.9422,-0.939,-0.9403,-0.9388,-0.9373,-0.9376,-0.9344,-0.9347,-0.9312,-0.9311,-0.9291,-0.9301,-0.9299,-0.9289,-0.9283,-0.9292,-0.9294,-0.9291,-0.9287,-0.927,-0.927,-0.9269,-0.9269,0,-0.9501,-0.9475,-0.9483,-0.9456,-0.9449,-0.946,-0.9437,-0.9441,-0.9423,-0.9427,-0.9426,-0.9396,-0.9394,-0.9367,-0.9359,-0.9345,-0.9363,-0.9351,-0.9369,-0.9365,-0.9388,-0.9387,-0.9467,-0.9476,-0.9391,-0.9392,-0.9392,0,-0.9539,-0.9548,-0.9522,-0.9521,-0.9511,-0.9511,-0.9507,-0.9476,-0.9473,-0.9456,-0.9463,-0.9458,-0.9452,-0.945,-0.9429,-0.9422,-0.941,-0.9439,-0.9409,-0.9418,-0.9411,-0.9412,-0.9412,-0.9446,-0.9447,-0.9447,-0.9448,0,-0.9611,-0.9597,-0.9593,-0.9584,-0.9581,-0.9572,-0.9562,-0.9563,-0.9529,-0.9528,-0.9525,-0.9521,-0.9512,-0.9508,-0.9498,-0.9486,-0.9462,-0.9458,-0.9462,-0.9472,-0.9481,-0.9477,-0.9386,-0.9456,-0.9455,-0.9455,-0.9454,-0.9454,-0.9666,-0.9672,-0.9655,-0.9651,-0.964,-0.9631,-0.9634,-0.9616,-0.9613,-0.9604,-0.9585,-0.9585,-0.9569,-0.9553,-0.9544,-0.9544,-0.9529,-0.9536,-0.9537,-0.954,-0.9545,-0.9481,-0.9541,-0.9541,-0.9541,-0.9541,-0.9541,0,-0.9736,-0.9723,-0.972,-0.9707,-0.9704,-0.968,-0.9668,-0.9667,-0.9668,-0.9655,-0.965,-0.9647,-0.9642,-0.962,-0.9613,-0.9617,-0.9606,-0.9617,-0.9616,-0.9614,-0.9558,-0.9555,-0.9626,-0.9626,-0.9626,-0.9626,-0.9626,-0.9626,-0.9772,-0.9781,-0.9766,-0.9769,-0.9756,-0.9755,-0.975,-0.9742,-0.9731,-0.9729,-0.9725,-0.9711,-0.9694,-0.9686,-0.9681,-0.9674,-0.9674,-0.9688,-0.9678,-0.9626,-0.9618,-0.961,-0.9607,-0.9688,-0.9688,-0.9735,-0.9735,-0.9735]},{"header":{"parameterUnit":"m.s-1","parameterCategory":1,"la1":30.2991,"la2":30.254,"lo1":-89.0895,"lo2":-89.0444,"dy":0.0017,"dx":0.0017,"nx":28,"ny":28,"refTime":"2025-06-21T21:00:00:Z","depth":0,"parameterNumber":3,"parameterNumberName":"V-component_of_WINDS"},"data":[0,0,0,0,0,0,0,0,0,0,0,0,0,0,0,0,0,0,0,0,0,0,0,0,0,0,0,0,0,0,0,0,0,0,0,0,0,0,0,0,0,0,0,0,0,0,0,0,0,0,0,0,0,0,0,0,0,0,3.2554,3.2554,0,3.2574,3.2574,3.2574,3.2539,3.2538,3.2537,3.2535,3.2554,3.2555,3.2557,0,0,0,0,0,0,0,0,0,0,0,0,0,3.2482,3.2483,3.2554,3.2554,3.2554,3.2574,3.2574,3.2575,3.2539,3.2538,3.2536,3.2535,3.2553,3.2555,3.2557,0,0,0,0,0,0,0,0,0,0,0,0,0,3.2508,3.2484,3.2554,3.2539,3.2538,3.2574,3.2574,3.2575,3.2539,3.2538,3.2536,3.2534,3.2552,3.2555,3.2557,3.2608,0,0,3.2564,3.2566,0,0,0,0,0,0,0,0,3.2507,3.2511,3.2541,3.254,3.2539,3.2552,3.2555,3.2586,3.254,3.2539,3.2535,3.2533,3.2554,3.2557,3.2564,3.2609,3.2609,3.2565,3.2566,3.2567,3.2568,0,0,0,0,0,0,0,3.2505,3.251,3.2562,3.2541,3.254,3.253,3.2532,3.2561,3.2556,3.2539,3.2536,3.2539,3.2553,3.2562,3.2564,3.261,3.2565,3.2567,3.2568,3.2569,3.2695,3.2697,0,0,0,0,0,0,3.2505,3.2509,3.2561,3.2562,3.2518,3.2533,3.2535,3.255,3.2556,3.2555,3.2541,3.2538,3.2559,3.2562,3.2565,3.2623,3.2567,3.2569,3.2571,3.2693,3.2695,3.2698,0,0,0,0,0,0,3.2504,3.2511,3.256,3.2535,3.254,3.2536,3.2553,3.2551,3.2559,3.2557,3.2556,3.255,3.2557,3.2561,3.2597,3.2623,3.257,3.2573,3.2691,3.2694,3.2696,3.2741,0,0,0,0,0,0,3.2502,3.251,3.253,3.2536,3.2542,3.2593,3.2554,3.2553,3.2564,3.256,3.2566,3.2565,3.2556,3.2594,3.26,3.2626,3.2575,3.2688,3.2692,3.2696,3.2738,3.2746,3.2752,0,0,0,0,0,3.25,3.2542,3.2531,3.2538,3.2567,3.2595,3.2598,3.2588,3.2566,3.2586,3.2584,3.2565,3.262,3.2598,3.2604,3.2631,3.2687,3.2691,3.2695,3.2734,3.2744,3.2752,0,0,0,0,0,0,3.2538,3.2542,3.2531,3.2576,3.2585,3.2589,3.2613,3.2598,3.2614,3.2609,3.2595,3.2596,3.2635,3.2637,3.2612,3.268,3.265,3.2655,3.2677,3.2686,3.2694,3.2692,3.2577,0,0,0,0,0,3.2553,3.2576,3.2577,3.2617,3.2622,3.2617,3.2629,3.262,3.2629,3.2632,3.2634,3.2642,3.2661,3.2674,3.2692,3.2738,3.2738,3.276,3.2767,3.2773,3.2778,3.2802,3.2811,3.2712,3.2712,3.2712,0,0,3.2581,3.2586,3.2602,3.2625,3.2631,3.2655,3.2621,3.2647,3.2664,3.2636,3.267,3.2671,3.268,3.2721,3.2739,3.2724,3.2806,3.2779,3.2784,3.2785,3.2807,3.2816,3.2825,3.2715,3.2714,3.2714,0,0,3.2645,3.2652,3.2685,3.2692,3.2703,3.2699,3.2707,3.2712,3.2712,3.2746,3.2726,3.2745,3.2779,3.2785,3.2793,3.286,3.2842,3.2866,3.2904,3.2927,3.2935,3.2942,3.2964,3.2972,3.2871,3.2871,3.2871,0,3.2679,3.2715,3.2704,3.2732,3.2742,3.2719,3.2752,3.2759,3.2774,3.2781,3.2764,3.2805,3.281,3.2851,3.2868,3.2875,3.2883,3.2864,3.2935,3.2941,3.2948,3.2969,3.2978,3.2874,3.2873,3.2873,3.2873,0,3.2755,3.278,3.2806,3.2822,3.2835,3.2865,3.2858,3.2872,3.2862,3.286,3.2894,3.2899,3.2916,3.2926,3.2916,3.2966,3.2956,3.2937,3.2906,3.296,3.298,3.2988,3.2877,3.2876,3.2876,3.2875,0,0,3.2844,3.2854,3.2863,3.2869,3.2879,3.2897,3.2926,3.2944,3.2956,3.2968,3.299,3.3019,3.3002,3.3011,3.3002,3.3022,3.3073,3.3001,3.3001,3.3013,3.3127,3.314,3.315,3.3062,3.3064,3.3065,3.3126,0,3.2907,3.2957,3.2948,3.2996,3.3018,3.2997,3.3021,3.3029,3.3028,3.3046,3.3044,3.3064,3.304,3.3045,3.3065,3.3063,3.3096,3.3059,3.3082,3.3083,3.3079,3.3161,3.3175,3.3232,3.3134,3.3135,3.3136,0,3.2987,3.3001,3.3052,3.3058,3.3066,3.3089,3.3104,3.3122,3.313,3.3128,3.3138,3.3125,3.3152,3.3122,3.3159,3.3134,3.3143,3.3143,3.3145,3.3146,3.3112,3.3162,3.325,3.3258,3.3148,3.3147,3.3146,0,3.3044,3.3077,3.3111,3.3118,3.3125,3.3142,3.3145,3.3152,3.3163,3.3176,3.3183,3.3199,3.3208,3.322,3.3211,3.319,3.3249,3.3218,3.3247,3.3247,3.3259,3.3258,3.3348,3.3267,3.3267,3.3267,3.3267,0,3.3115,3.3146,3.3137,3.3158,3.3193,3.3182,3.3216,3.3217,3.3223,3.3243,3.3225,3.3244,3.3232,3.325,3.3243,3.3274,3.3279,3.3276,3.3274,3.3277,3.3277,3.3282,3.3277,3.3269,3.3269,3.3268,3.3268,0,3.3185,3.318,3.3216,3.3221,3.3222,3.3247,3.325,3.327,3.3267,3.3292,3.3298,3.3293,3.3313,3.3306,3.3327,3.3323,3.3362,3.3355,3.3359,3.3357,3.3385,3.3382,3.3481,3.3492,3.3405,3.3406,3.3407,0,3.323,3.3253,3.326,3.3273,3.3278,3.3298,3.331,3.33,3.3312,3.3323,3.334,3.3359,3.3373,3.3406,3.3404,3.342,3.3413,3.3446,3.3415,3.3417,3.3412,3.341,3.3411,3.3452,3.3453,3.3454,3.3454,0,3.3309,3.3305,3.3323,3.3339,3.3353,3.3366,3.3376,3.3387,3.3378,3.3392,3.3413,3.3424,3.3446,3.3464,3.3478,3.3481,3.3466,3.3464,3.3472,3.3474,3.3475,3.3474,3.3375,3.3462,3.3461,3.3461,3.346,3.346,3.3367,3.3386,3.3394,3.3414,3.3421,3.3431,3.3449,3.3449,3.3466,3.3483,3.3476,3.35,3.3507,3.3524,3.3529,3.3547,3.3534,3.3544,3.3547,3.3549,3.3552,3.3474,3.3549,3.3549,3.3549,3.3549,3.3549,0,3.3444,3.3448,3.3466,3.3482,3.3497,3.3482,3.3493,3.3507,3.3528,3.3536,3.355,3.3573,3.3591,3.3591,3.3607,3.3621,3.3614,3.3625,3.3623,3.3624,3.3564,3.3555,3.363,3.363,3.363,3.363,3.363,3.363,3.3486,3.3518,3.3515,3.3551,3.3554,3.3577,3.3585,3.3594,3.36,3.3627,3.3642,3.3642,3.3646,3.3662,3.3677,3.3677,3.3683,3.3696,3.3693,3.3636,3.3628,3.3621,3.3613,3.3698,3.3698,3.3752,3.3752,3.3752]}]]